Location: Molveno
(46.1500°N, 10.9667°E)
Time: 01:37:58
(UTC+00:00)

Landsat 7 - Pass Details

Date: 05 July 2020
Orbit: 701 x 703 km, 98.1° (Epoch: 11 August)

Event Time Altitude Azimuth Distance (km) Brightness Sun altitude
Exits shadow 19:42:53 - 141° (SE) 2,508 6.0 -5.3°
Reaches altitude 10° 19:43:46 10° 138° (SE) 2,167 5.7 -5.5°
Maximum altitude 19:48:12 41° 69° (ENE) 1,016 4.5 -6.0°
Drops below altitude 10° 19:52:41 10° 360° (N) 2,182 7.0 -6.6°
Sets 19:55:02 0° 353° (N) 3,104 8.0 -6.9°
